Вернуться в каталог

THORAD AGENA D DEB

АктивенPO
NORAD 4913·DEBRIS·🇺🇸 United States

Запущен Apr 8, 1970 с Vandenberg Space Force Base

Loading…

Ближайшие Пролёты

TLE

Source: Space-Track
1 04913U 70025FK  26230.27814614  .00000465  00000-0  31251-3 0  9997
2 04913  99.8104 330.0071 0137832  32.7293 328.2316 14.01727091862681

Отслеживайте THORAD AGENA D DEB в реальном времени с AllMySat

Download on the App Store